Regional Weather Roundup
Issued by NWS

Home | Current Version | Previous Version | Text Only | Print | Product List | Glossary On
Versions: 1 2 3 4 5 6 7 8 9 10 11 12 13 14 15 16 17 18 19 20 21 22 23 24 25 26 27 28
000
ASUS44 KBMX 311610
RWRAL

ALABAMA REGIONAL WEATHER ROUNDUP
NATIONAL WEATHER SERVICE BIRMINGHAM AL
1100 AM CDT WED AUG 31 2016

NOTE: "FAIR" INDICATES FEW OR NO CLOUDS BELOW 12,000 FEET
WITH NO SIGNIFICANT WEATHER AND/OR OBSTRUCTIONS TO VISIBILITY.

THE REMARK "TC" DENOTES TEMPERATURE IN DEGREES CELSIUS.

ALZ001>011-014-016>018-020-311700-
NORTH ALABAMA

CITY           SKY/WX    TMP DP  RH WIND       PRES   REMARKS
MUSCLE SHOALS  SUNNY     88  68  51 CALM      30.00F HX  91
HUNTSVILLE     MOSUNNY   89  66  46 VRB5      30.00F HX  91
DECATUR        SUNNY     89  69  51 CALM      30.00F HX  93
HALEYVILLE     NOT AVBL
GADSDEN        SUNNY     88  71  57 E6        30.00F HX  94
$$

ALZ012-013-022-023-030>036-040>044-311700-
WEST CENTRAL ALABAMA

CITY           SKY/WX    TMP DP  RH WIND       PRES   REMARKS
TUSCALOOSA     SUNNY     88  71  57 CALM      29.96F HX  94
$$

ALZ015-024>027-033>036-040>044-311700-
CENTRAL ALABAMA

CITY           SKY/WX    TMP DP  RH WIND       PRES   REMARKS
BIRMINGHAM     MOSUNNY   89  67  47 E7        30.01F HX  92
MONTGOMERY     MOSUNNY   87  68  52 NE8       29.95F HX  90
SHELBY CO ARPT SUNNY     89  65  44 E7G16     29.98F HX  91
MAXWELL AFB    MOSUNNY   87  71  59 NE9       29.95F HX  93
GREENVILLE     FAIR      88  68  51 NE10G18   29.95S HX  91
$$

ALZ019-021-028-029-037-038-045>048-311700-
EAST CENTRAL ALABAMA

CITY           SKY/WX    TMP DP  RH WIND       PRES   REMARKS
ANNISTON       SUNNY     88  65  46 E10       29.99F HX  90
ALEXANDER CITY MOSUNNY   90  79  70 NE5       29.99F HX 106
AUBURN         MOSUNNY   86  68  54 NE10      30.00S
$$

ALZ051>064-311700-
SOUTHWEST ALABAMA

CITY           SKY/WX    TMP DP  RH WIND       PRES   REMARKS
MOBILE         MOSUNNY   87  72  60 E8        29.92S HX  93
BROOKLEY FIELD MOSUNNY   87  73  62 NE9       29.92S HX  94
EVERGREEN      MOSUNNY   86  71  60 NE9       29.94S HX  91
$$

ALZ049-050-065>069-311700-
SOUTHEAST ALABAMA

CITY           SKY/WX    TMP DP  RH WIND       PRES   REMARKS
DOTHAN         MOSUNNY   87  74  64 NE14      29.96F HX  95
OZARK          MOSUNNY   87  73  61 NE12      29.92F HX  94
TROY           SUNNY     86  69  56 E10       29.96S HX  90
EUFAULA        FAIR      91  70  49 NE9       29.94F HX  96
$$




USA.gov is the U.S. government's official web portal to all federal, state and local government web resources and services.